This is the latest recevied weather packets stored in our database for station/object KN6WGU. If no packets are shown the sender has not sent any weather packets the latest 10 day(s).
| Time | Temp. | Humidity | Pressure | Rain* | Wind** | Luminosity | Snow |
|---|---|---|---|---|---|---|---|
| 1788095485 | 21.67° C | 79% | 1012.6 hPa | 0 mm | - | 35 W/m² | - |
| 1788095180 | 21.67° C | 78% | 1012.5 hPa | 0 mm | - | 27 W/m² | - |
| 1788094875 | 21.67° C | 78% | 1012.3 hPa | 0 mm | - | 37 W/m² | - |
| 1788094574 | 21.67° C | 77% | 1012.4 hPa | 0 mm | - | 35 W/m² | - |
| 1788094274 | 21.67° C | 77% | 1012.4 hPa | 0 mm | - | 24 W/m² | - |
| 1788093973 | 21.67° C | 77% | 1012.3 hPa | 0 mm | - | 36 W/m² | - |
| 1788093668 | 21.67° C | 77% | 1012.3 hPa | 0 mm | - | 38 W/m² | - |
| 1788093366 | 21.67° C | 77% | 1012.5 hPa | 0 mm | - | 44 W/m² | - |
| 1788093061 | 21.67° C | 77% | 1012.3 hPa | 0 mm | - | 36 W/m² | - |
| 1788092757 | 21.67° C | 77% | 1012.5 hPa | 0 mm | - | 29 W/m² | - |
| 1788092453 | 21.67° C | 77% | 1012.5 hPa | 0 mm | - | 26 W/m² | - |
| 1788092149 | 21.67° C | 77% | 1012.6 hPa | 0 mm | - | 24 W/m² | - |
| 1788091848 | 21.67° C | 77% | 1012.5 hPa | 0 mm | - | 21 W/m² | - |
| 1788091543 | 21.67° C | 77% | 1012.6 hPa | 0 mm | - | 23 W/m² | - |
| 1788091240 | 21.67° C | 76% | 1012.4 hPa | 0 mm | - | 21 W/m² | - |
| 1788090936 | 21.11° C | 77% | 1012.4 hPa | 0 mm | - | 19 W/m² | - |
| 1788090631 | 21.11° C | 77% | 1012.4 hPa | 0 mm | - | 13 W/m² | - |
| 1788090328 | 21.11° C | 78% | 1012.5 hPa | 0 mm | - | 11 W/m² | - |
| 1788090021 | 21.11° C | 78% | 1012.2 hPa | 0 mm | - | 8 W/m² | - |
| 1788089716 | 21.11° C | 78% | 1012.3 hPa | 0 mm | - | 5 W/m² | - |
| 1788089412 | 21.11° C | 78% | 1012.5 hPa | 0 mm | - | 5 W/m² | - |
| 1788089108 | 21.11° C | 79% | 1012.5 hPa | 0 mm | - | 4 W/m² | - |
| 1788088804 | 21.11° C | 78% | 1012.5 hPa | 0 mm | - | 3 W/m² | - |
| 1788088499 | 20.56° C | 79% | 1012.3 hPa | 0 mm | - | 2 W/m² | - |
| 1788088195 | 20.56° C | 79% | 1012.3 hPa | 0 mm | - | 1 W/m² | - |
* Rain latest hour (hover to see other rain measurements)
** Current wind speed in m/s (hover to see current wind gust speed)